Regional Weather Roundup
Issued by NWS

Home | Current Version | Previous Version | Text Only | Print | Product List | Glossary Off
Versions: 1 2 3 4 5 6 7 8 9 10 11 12 13 14 15 16 17 18 19 20 21 22 23 24 25 26 27 28 29 30 31 32 33 34 35 36 37 38 39 40 41 42 43 44 45 46 47 48 49 50

000
ASUS43 KBIS 250010
RWRND

NORTH DAKOTA REGIONAL WEATHER ROUNDUP
NATIONAL WEATHER SERVICE BISMARCK ND
600 PM CST WED DEC 24 2014

NOTE: "FAIR" INDICATES FEW OR NO CLOUDS BELOW 12,000 FEET WITH NO
SIGNIFICANT WEATHER AND/OR OBSTRUCTIONS TO VISIBILITY.


NDZ001>003-009>011-017-250100-
NORTHWEST NORTH DAKOTA

CITY           SKY/WX    TMP DP  RH WIND       PRES   REMARKS
WILLISTON      PTCLDY    30  24  78 N5        29.48R
6HR MIN TEMP:  29; 6HR MAX TEMP:  38;

MINOT          PTCLDY    32  27  81 W15       29.43R
MINOT AFB      PTCLDY    27  27  99 W10       29.42S WCI  17
$$

NDZ018>021-031>035-040>046-250100-
SOUTHWEST NORTH DAKOTA

CITY           SKY/WX    TMP DP  RH WIND       PRES   REMARKS
BISMARCK       CLOUDY    31  28  89 E3        29.47S
6HR MIN TEMP:  28; 6HR MAX TEMP:  33; 6HR PCP: TRACE;

DICKINSON      CLOUDY    35  31  85 NW8       29.44F
GARRISON         N/A     34  30  85 NW8       29.44R
6HR MIN TEMP:  30; 6HR MAX TEMP:  35;

HETTINGER ARPT CLOUDY    34  28  79 NW7       29.47S
$$

NDZ004>008-012>016-024-026-027-054-250100-
NORTHEAST NORTH DAKOTA

CITY           SKY/WX    TMP DP  RH WIND       PRES   REMARKS
GRAND FORKS    CLOUDY    27  25  92 S16       29.50F WCI  15
GRND FRKS AFB  CLOUDY    28  28 100 S10       29.49F WCI  18
DEVILS LAKE    CLOUDY    28  25  86 SW9       29.41F WCI  20
$$

NDZ022-023-025-028>030-036>039-047>053-250100-
SOUTHEAST NORTH DAKOTA

CITY           SKY/WX    TMP DP  RH WIND       PRES   REMARKS
FARGO          CLOUDY    29  25  85 MISG      29.54F
6HR MIN TEMP:  27; 6HR MAX TEMP:  29;

JAMESTOWN      CLOUDY    30  25  81 S10       29.45F
$$




USA.gov is the U.S. government's official web portal to all federal, state and local government web resources and services.